Location: Newark
(3.0500°N, 36.0167°E)
Time: 02:50:09
(UTC+00:00)

Envisat - Visible Passes

Search period start: 23 July 2019 00:00
Search period end: 02 August 2019 00:00
Orbit: 764 x 766 km, 98.1° (Epoch: 22 July)

Date Brightness Start Highest point End Pass type
(mag) Time Alt. Az. Time Alt. Az. Time Alt. Az.
23 Jul 5.7 17:24:15 10° SW 17:27:08 15° WSW 17:30:01 10° WNW visible
24 Jul 4.2 16:45:40 10° S 16:50:28 43° WSW 16:55:15 10° NNW visible
25 Jul 3.0 16:08:46 10° SSE 16:13:48 65° ENE 16:18:49 10° N visible
26 Jul 5.4 17:12:10 10° SSW 17:15:54 21° WSW 17:19:39 10° NW visible
27 Jul 3.6 16:34:16 10° S 16:39:15 59° WSW 16:44:14 10° NNW visible
29 Jul 4.9 17:00:24 10° SSW 17:04:42 28° WSW 17:09:00 10° NW visible
30 Jul 3.1 16:22:57 10° S 16:28:02 82° WSW 16:33:06 10° NNW visible
31 Jul 5.8 17:27:44 10° SW 17:30:08 13° WSW 17:32:32 10° WNW visible
01 Aug 4.4 16:48:48 10° S 16:53:29 38° WSW 16:58:10 10° NW visible
